TimeCST,TemperatureF,Dew PointF,Humidity,Sea Level PressureIn,VisibilityMPH,Wind Direction,Wind SpeedMPH,Gust SpeedMPH,PrecipitationIn,Events,Conditions,WindDirDegrees,DateUTC
12:53 AM,48.0,37.9,68,30.08,10.0,Calm,Calm,-,N/A,,Overcast,0,2013-11-15 06:53:00
1:53 AM,46.9,39.0,74,30.07,10.0,ESE,3.5,-,N/A,,Overcast,120,2013-11-15 07:53:00
2:53 AM,46.0,42.1,86,30.07,10.0,Calm,Calm,-,N/A,,Overcast,0,2013-11-15 08:53:00
3:11 AM,46.0,43.0,89,30.07,9.0,NNE,3.5,-,N/A,,Overcast,20,2013-11-15 09:11:00
3:53 AM,45.0,42.1,90,30.06,4.0,ENE,4.6,-,N/A,,Overcast,70,2013-11-15 09:53:00
4:53 AM,45.0,43.0,93,30.06,4.0,ENE,4.6,-,N/A,,Overcast,60,2013-11-15 10:53:00
5:53 AM,44.1,42.1,93,30.05,3.0,East,5.8,-,N/A,,Overcast,90,2013-11-15 11:53:00
6:20 AM,44.1,43.0,96,30.06,2.5,East,3.5,-,N/A,,Overcast,80,2013-11-15 12:20:00
6:45 AM,44.1,43.0,96,30.06,1.8,ENE,4.6,-,N/A,,Overcast,70,2013-11-15 12:45:00
6:53 AM,44.1,43.0,96,30.06,2.0,East,5.8,-,N/A,,Overcast,80,2013-11-15 12:53:00
7:14 AM,44.1,44.1,100,30.06,2.5,ENE,5.8,-,N/A,,Overcast,60,2013-11-15 13:14:00
7:23 AM,45.0,44.1,97,30.06,2.0,East,5.8,-,N/A,,Overcast,80,2013-11-15 13:23:00
7:30 AM,45.0,44.1,97,30.06,2.5,East,5.8,-,N/A,,Overcast,80,2013-11-15 13:30:00
7:41 AM,45.0,44.1,97,30.06,1.2,East,5.8,-,N/A,,Overcast,80,2013-11-15 13:41:00
7:53 AM,45.0,44.1,97,30.06,1.2,ENE,3.5,-,N/A,,Overcast,70,2013-11-15 13:53:00
8:10 AM,45.0,45.0,100,30.07,1.0,Calm,Calm,-,N/A,,Overcast,0,2013-11-15 14:10:00
8:18 AM,45.0,45.0,100,30.07,1.0,ENE,3.5,-,N/A,,Overcast,70,2013-11-15 14:18:00
8:53 AM,46.0,45.0,96,30.06,1.2,ENE,3.5,-,N/A,,Overcast,60,2013-11-15 14:53:00
9:17 AM,46.0,46.0,100,30.07,1.2,ENE,4.6,-,N/A,,Overcast,70,2013-11-15 15:17:00
9:53 AM,46.9,46.0,97,30.06,1.5,East,3.5,-,N/A,,Overcast,80,2013-11-15 15:53:00
10:07 AM,46.9,46.9,100,30.06,2.0,ENE,3.5,-,N/A,,Overcast,70,2013-11-15 16:07:00
10:14 AM,46.9,46.0,97,30.06,1.8,East,4.6,-,N/A,,Overcast,80,2013-11-15 16:14:00
10:33 AM,48.0,46.9,96,30.05,2.5,East,3.5,-,N/A,,Overcast,100,2013-11-15 16:33:00
10:53 AM,48.0,46.9,96,30.05,2.0,East,4.6,-,N/A,,Overcast,80,2013-11-15 16:53:00
11:12 AM,48.0,46.9,96,30.04,3.0,East,4.6,-,N/A,,Overcast,80,2013-11-15 17:12:00
11:20 AM,48.0,46.9,96,30.03,2.5,East,5.8,-,N/A,,Overcast,90,2013-11-15 17:20:00
11:33 AM,48.9,48.0,97,30.02,1.8,ENE,4.6,-,N/A,,Overcast,70,2013-11-15 17:33:00
11:43 AM,48.9,48.0,97,30.01,2.0,ENE,5.8,-,N/A,,Overcast,70,2013-11-15 17:43:00
11:53 AM,48.9,48.0,97,30.01,1.8,ENE,5.8,-,N/A,,Overcast,70,2013-11-15 17:53:00
12:15 PM,48.9,48.9,100,29.99,2.0,ESE,5.8,-,N/A,,Overcast,110,2013-11-15 18:15:00
12:25 PM,48.9,48.9,100,29.98,1.5,East,4.6,-,N/A,,Overcast,100,2013-11-15 18:25:00
12:53 PM,50.0,48.9,96,29.97,1.2,East,5.8,-,N/A,,Overcast,90,2013-11-15 18:53:00
1:53 PM,50.0,50.0,100,29.96,1.0,East,3.5,-,N/A,,Overcast,90,2013-11-15 19:53:00
2:03 PM,51.1,50.0,96,29.96,0.8,East,3.5,-,N/A,,Overcast,90,2013-11-15 20:03:00
2:53 PM,51.1,51.1,100,29.94,0.8,East,3.5,-,N/A,,Overcast,100,2013-11-15 20:53:00
3:53 PM,52.0,52.0,100,29.91,0.5,ENE,4.6,-,N/A,Fog,Fog,70,2013-11-15 21:53:00
4:17 PM,52.0,52.0,100,29.93,0.2,East,4.6,-,N/A,Fog,Fog,80,2013-11-15 22:17:00
4:53 PM,52.0,52.0,100,29.92,0.2,East,5.8,-,N/A,Fog,Fog,80,2013-11-15 22:53:00
5:31 PM,52.0,52.0,100,29.93,0.5,ENE,4.6,-,N/A,Fog,Fog,70,2013-11-15 23:31:00
5:50 PM,53.6,53.6,100,29.92,1.0,ENE,4.6,-,N/A,,Overcast,70,2013-11-15 23:50:00
5:53 PM,53.1,53.1,100,29.92,1.0,East,5.8,-,N/A,,Overcast,80,2013-11-15 23:53:00
6:53 PM,53.1,53.1,100,29.93,1.5,ESE,8.1,-,N/A,,Overcast,110,2013-11-16 00:53:00
7:53 PM,53.1,53.1,100,29.93,1.2,East,6.9,-,N/A,,Overcast,80,2013-11-16 01:53:00
8:23 PM,54.0,53.1,97,29.94,2.0,East,4.6,-,N/A,,Overcast,80,2013-11-16 02:23:00
8:51 PM,53.6,53.6,100,29.93,2.5,ENE,3.5,-,N/A,,Overcast,60,2013-11-16 02:51:00
8:53 PM,54.0,54.0,100,29.93,2.5,NE,3.5,-,N/A,,Overcast,50,2013-11-16 02:53:00
9:22 PM,54.0,54.0,100,29.94,2.5,East,4.6,-,N/A,,Overcast,80,2013-11-16 03:22:00
9:34 PM,55.0,54.0,96,29.94,3.0,East,4.6,-,N/A,,Overcast,80,2013-11-16 03:34:00
9:53 PM,55.0,54.0,96,29.93,3.0,East,5.8,-,N/A,,Overcast,80,2013-11-16 03:53:00
10:53 PM,57.0,55.9,96,29.94,4.0,East,4.6,-,N/A,,Overcast,100,2013-11-16 04:53:00
11:53 PM,57.0,55.9,96,29.94,3.0,East,4.6,-,N/A,,Overcast,90,2013-11-16 05:53:00